User: anonymous   Login
Location: Unspecified
(0.0000°N, 0.0000°E)
Time: 08:03:01
(UTC+01:00)
Language:

Cosmos 1733 Rocket - Orbit

View from above orbital plane
View from above orbital plane
View from above satellite
View from above satellite

Ground track
Ground track

The orbit data is extracted from the following two-line orbital elements,

1 16612U 86018B   17346.90181147  .00000098  00000-0  88456-5 0  9994
2 16612  82.5160 128.7610 0016216 284.4889 188.8835 14.84176948617966
Epoch (UTC): 12 December 2017 21:38:36
Eccentricity: 0.0016216
inclination: 82.5160°
perigee height: 605 km
apogee height: 627 km
right ascension of ascending node: 128.7610°
argument of perigee: 284.4889°
revolutions per day: 14.84176948
mean anomaly at epoch: 188.8835°
orbit number at epoch: 61796

The dashed part of the orbit path shows where the satellite is in the earth's shadow,  

DLR